| time (UTC) | temp F | wind direction | speed knots | gust knots | rain 1hr in | rain 24hr in | rain mn in | humidity % | barometer mb |
| 20260505211506 | 65 | 211 | 7.0 | 19.1 | 0.00 | 0.00 | 0.00 | 62 | 1005.9 |
| 20260505210002 | 65 | 207 | 7.8 | 16.5 | 0.00 | 0.00 | 0.00 | 62 | 1005.9 |
| 20260505204600 | 64 | 194 | 6.1 | 13.0 | 0.00 | 0.00 | 0.00 | 64 | 1006.0 |
| 20260505203058 | 64 | 186 | 5.2 | 14.8 | 0.00 | 0.00 | 0.00 | 67 | 1006.0 |
| 20260505201558 | 64 | 202 | 7.0 | 13.0 | 0.00 | 0.00 | 0.00 | 65 | 1006.0 |
| 20260505194555 | 59 | 117 | 6.1 | 13.0 | 0.00 | 0.00 | 0.00 | 73 | 1006.5 |
| 20260505193050 | 63 | 153 | 5.2 | 13.0 | 0.00 | 0.00 | 0.00 | 68 | 1006.8 |
| 20260505191549 | 63 | 251 | 3.5 | 12.2 | 0.00 | 0.00 | 0.00 | 70 | 1007.0 |
| 20260505190048 | 59 | 124 | 6.1 | 10.4 | 0.00 | 0.00 | 0.00 | 74 | 1007.0 |
| 20260505184547 | 60 | 154 | 4.3 | 8.7 | 0.00 | 0.00 | 0.00 | 73 | 1006.9 |
| 20260505183054 | 60 | 131 | 8.7 | 13.9 | 0.00 | 0.00 | 0.00 | 73 | 1006.7 |
| 20260505181546 | 58 | 119 | 11.3 | 14.8 | 0.00 | 0.00 | 0.00 | 73 | 1007.0 |
| 20260505180046 | 62 | 226 | 2.6 | 14.8 | 0.00 | 0.00 | 0.00 | 65 | 1007.5 |
| 20260505174545 | 61 | 147 | 6.1 | 16.5 | 0.00 | 0.00 | 0.00 | 68 | 1007.6 |
| 20260505173038 | 63 | 203 | 8.7 | 20.0 | 0.00 | 0.00 | 0.00 | 66 | 1007.9 |
| 20260505171536 | 63 | 189 | 6.1 | 18.2 | 0.00 | 0.00 | 0.00 | 66 | 1008.0 |
| 20260505170033 | 61 | 221 | 8.7 | 14.8 | 0.00 | 0.00 | 0.00 | 70 | 1008.3 |
| 20260505164535 | 61 | 165 | 6.1 | 12.2 | 0.00 | 0.00 | 0.00 | 69 | 1008.3 |
| 20260505163031 | 61 | 191 | 6.1 | 13.9 | 0.00 | 0.00 | 0.00 | 70 | 1008.4 |
| 20260505161529 | 60 | 251 | 9.6 | 19.1 | 0.00 | 0.00 | 0.00 | 71 | 1009.1 |
| 20260505153027 | 59 | 172 | 7.8 | 20.0 | 0.00 | 0.00 | 0.00 | 71 | 1008.8 |
| 20260505151528 | 58 | 209 | 7.0 | 13.0 | 0.00 | 0.00 | 0.00 | 73 | 1008.8 |
| 20260505124524 | 60 | 167 | 4.3 | 10.4 | 0.00 | 0.00 | 0.00 | 65 | 1009.2 |
| 20260505123027 | 60 | 270 | 6.1 | 12.2 | 0.00 | 0.00 | 0.00 | 64 | 1009.3 |
| 20260505121519 | 59 | 269 | 7.0 | 13.0 | 0.00 | 0.00 | 0.00 | 67 | 1009.5 |
| 20260505120027 | 56 | 248 | 4.3 | 10.4 | 0.00 | 0.00 | 0.00 | 72 | 1009.7 |
| 20260505114508 | 51 | 150 | 2.6 | 7.0 | 0.00 | 0.00 | 0.00 | 83 | 1010.0 |
| 20260505113006 | 51 | 131 | 5.2 | 7.0 | 0.00 | 0.00 | 0.00 | 81 | 1009.9 |
| 20260505111513 | 52 | 86 | 0.9 | 5.2 | 0.00 | 0.00 | 0.00 | 80 | 1009.9 |
| 20260505101506 | 50 | 281 | 2.6 | 7.0 | 0.00 | 0.00 | 0.00 | 81 | 1009.9 |
| 20260505094559 | 50 | 247 | 2.6 | 5.2 | 0.00 | 0.00 | 0.00 | 80 | 1009.6 |
| 20260505093101 | 50 | 260 | 4.3 | 7.8 | 0.00 | 0.00 | 0.00 | 80 | 1009.4 |
| 20260505091606 | 50 | 276 | 4.3 | 7.8 | 0.00 | 0.00 | 0.00 | 79 | 1009.4 |
| 20260505090057 | 50 | 279 | 4.3 | 9.6 | 0.00 | 0.00 | 0.00 | 78 | 1009.4 |
| 20260505084556 | 51 | 264 | 6.1 | 11.3 | 0.00 | 0.00 | 0.00 | 78 | 1009.4 |
| 20260505083057 | 51 | 284 | 7.0 | 12.2 | 0.00 | 0.00 | 0.00 | 77 | 1009.3 |
| 20260505081550 | 51 | 257 | 6.1 | 10.4 | 0.00 | 0.00 | 0.00 | 77 | 1009.3 |
| 20260505080051 | 51 | 275 | 6.1 | 10.4 | 0.00 | 0.00 | 0.00 | 77 | 1009.2 |
| 20260505074547 | 51 | 294 | 5.2 | 9.6 | 0.00 | 0.00 | 0.00 | 77 | 1009.2 |
| 20260505073052 | 51 | 299 | 5.2 | 10.4 | 0.00 | 0.00 | 0.00 | 76 | 1009.3 |
| 20260505071554 | 51 | 292 | 6.1 | 8.7 | 0.00 | 0.00 | 0.00 | 76 | 1009.2 |
| 20260505070041 | 52 | 267 | 6.1 | 9.6 | 0.00 | 0.00 | 0.00 | 75 | 1009.2 |
| 20260505064541 | 52 | 275 | 5.2 | 9.6 | 0.00 | 0.00 | 0.00 | 75 | 1009.1 |
| 20260505063036 | 52 | 274 | 5.2 | 7.8 | 0.00 | 0.00 | 0.00 | 74 | 1009.1 |
| 20260505061534 | 52 | 274 | 5.2 | 8.7 | 0.00 | 0.00 | 0.00 | 73 | 1009.0 |
| 20260505060044 | 53 | 311 | 4.3 | 7.8 | 0.00 | 0.00 | 0.00 | 73 | 1009.0 |
| 20260505054533 | 53 | 296 | 5.2 | 9.6 | 0.00 | 0.00 | 0.00 | 72 | 1008.9 |
| 20260505053030 | 53 | 306 | 6.1 | 9.6 | 0.00 | 0.00 | 0.00 | 72 | 1008.8 |
| 20260505051529 | 53 | 274 | 5.2 | 8.7 | 0.00 | 0.00 | 0.00 | 72 | 1008.6 |
| 20260505041524 | 53 | 308 | 5.2 | 9.6 | 0.00 | 0.00 | 0.00 | 73 | 1008.2 |
| 20260505040017 | 53 | 309 | 5.2 | 9.6 | 0.00 | 0.00 | 0.00 | 73 | 1008.2 |
| 20260505034516 | 52 | 302 | 5.2 | 9.6 | 0.00 | 0.00 | 0.00 | 74 | 1008.2 |
| 20260505033016 | 52 | 286 | 5.2 | 7.8 | 0.00 | 0.00 | 0.00 | 75 | 1008.1 |
| 20260505031515 | 51 | 292 | 4.3 | 7.0 | 0.00 | 0.00 | 0.00 | 76 | 1008.1 |
| 20260505030015 | 51 | 300 | 2.6 | 6.1 | 0.00 | 0.00 | 0.00 | 75 | 1008.1 |
| 20260505024515 | 51 | 290 | 3.5 | 7.0 | 0.00 | 0.00 | 0.00 | 74 | 1008.2 |
| 20260505023021 | 51 | 292 | 5.2 | 7.0 | 0.00 | 0.00 | 0.00 | 74 | 1008.1 |
| 20260505021516 | 51 | 298 | 3.5 | 6.1 | 0.00 | 0.00 | 0.00 | 74 | 1008.1 |
| 20260505020013 | 52 | 288 | 5.2 | 7.8 | 0.00 | 0.00 | 0.00 | 73 | 1008.0 |
| 20260505014515 | 52 | 271 | 2.6 | 6.1 | 0.00 | 0.00 | 0.00 | 72 | 1007.9 |
| 20260505013014 | 52 | 303 | 3.5 | 5.2 | 0.00 | 0.00 | 0.00 | 71 | 1007.9 |
| 20260505011513 | 53 | 294 | 3.5 | 5.2 | 0.00 | 0.00 | 0.00 | 69 | 1007.8 |
| 20260505010012 | 53 | 290 | 2.6 | 6.1 | 0.00 | 0.00 | 0.00 | 69 | 1007.6 |
| 20260505004519 | 52 | 17 | 0.9 | 1.7 | 0.00 | 0.00 | 0.00 | 76 | 1007.5 |
| 20260505003011 | 53 | 105 | 0.0 | 2.6 | 0.00 | 0.00 | 0.00 | 73 | 1007.2 |
| 20260505001511 | 56 | 298 | 0.0 | 5.2 | 0.00 | 0.00 | 0.00 | 66 | 1007.0 |
| 20260505000020 | 56 | 304 | 3.5 | 4.3 | 0.00 | 0.00 | 0.00 | 64 | 1006.9 |
| 20260504234510 | 56 | 290 | 1.7 | 4.3 | 0.00 | 0.00 | 0.00 | 66 | 1006.7 |
| 20260504233011 | 54 | 325 | 1.7 | 3.5 | 0.00 | 0.00 | 0.00 | 72 | 1006.6 |
| 20260504231509 | 55 | 38 | 0.9 | 5.2 | 0.00 | 0.00 | 0.00 | 68 | 1006.4 |
| 20260504230009 | 56 | 34 | 2.6 | 5.2 | 0.00 | 0.00 | 0.00 | 68 | 1006.1 |
| 20260504224505 | 58 | 306 | 2.6 | 7.8 | 0.00 | 0.00 | 0.00 | 67 | 1005.9 |
| 20260504223007 | 55 | 134 | 4.3 | 8.7 | 0.00 | 0.00 | 0.00 | 71 | 1005.8 |
| 20260504221503 | 65 | 219 | 1.7 | 9.6 | 0.00 | 0.00 | 0.00 | 47 | 1005.7 |
| 20260504220003 | 65 | 288 | 7.8 | 13.0 | 0.00 | 0.00 | 0.00 | 46 | 1005.7 |
| 20260504214502 | 65 | 294 | 5.2 | 14.8 | 0.00 | 0.00 | 0.00 | 46 | 1005.7 |
| 20260504213002 | 65 | 238 | 9.6 | 18.2 | 0.00 | 0.00 | 0.00 | 46 | 1005.6 |